星链-34854 (STARLINK-34854)

导读

STARLINK-34854是美国太空探索技术公司SpaceX星链卫星互联网星座的组网卫星,于2025年8月27日发射升空。星链计划旨在打造覆盖全球的低轨卫星互联网网络,该卫星入轨后将补充星链星座的卫星容量,增强全球尤其是偏远地区的高速互联网接入服务能力,进一步完善星链星座的覆盖与服务性能。

基本信息
目录编号:
65337
目录名称:
STARLINK-34854
国际标识:
2025-189Q
轨道中心:
EARTH
卫星名称:
星链-34854
卫星全名:
星链-34854 (STARLINK-34854)
卫星状态:
在轨 (已飞行382 天)
发射日期:
2025-08-27 UTC
国别 :
美国 (US)
星等 :
--
该卫星已列入 空间交会检测服务 Space Conjunction Data Service (SCDS) ,当前飞行风险评估等级: 无高风险
轨道信息
数据来源 国际轨道数据
星历时间: 2026-09-13T05:04:28+0800
7小时前
查看轨道信息
半长轴: 6848.807km
偏心率: 0.000103
轨道倾角: 53.160°
近地点辐角 87.694°
升交点赤经 56.032°
平近点角 272.418°
近地点: 469.964km
远地点: 471.376km
周期: 94.012分钟
每日圈数: 15.317235
详细信息
固有亮度:
5
最大亮度:
2.5
卫星平台:
Starlink V1.0
覆盖范围:
全球
运营商:
太空探索技术公司
运营商所在国:
美国
制造商(研发单位):
太空探索技术公司
制造商所在国:
美国
使用方式:
暂无
卫星简介
Starlink 计划是 SpaceX 推出的全球卫星互联网项目,通过发射低轨道卫星,为全球尤其是偏远地区提供高速、低延迟的互联网服务。自 2019 年起,Starlink 已部署数千颗卫星,旨在缩小全球数字鸿沟,推动互联网普及。该项目还为军事、航空等行业提供通信支持,带来广泛经济效益。
2D轨道图
3D轨道图
轨道高度分析图
轨道倾角分析图
轨道综合分析图
查看轨道综合分析图
交会数据列表
事件ID 空间交会对象 最接近时刻(TCA) 交会距离 交会风险概率(CRP) 交会风险指数(CRI) 操作
CDM_260906-061806-533706-566121
2026-09-06T
06:18:03+0000
2.956 km
极远距离
1.347451E-6 低风险 0.38
CDM_260914-153706-533706-884022
2026-09-14T
15:37:57+0000
2.901 km
极远距离
1.346738E-6 低风险 0.38
CDM_260912-221006-519006-533721
2026-09-12T
22:10:01+0000
2.551 km
极远距离
1.313689E-6 低风险 0.37
CDM_260906-072506-533706-838421
2026-09-06T
07:25:06+0000
2.652 km
极远距离
1.158953E-6 低风险 0.36
CDM_260915-014806-533706-882121
2026-09-15T
01:48:38+0000
2.832 km
极远距离
1.066027E-6 低风险 0.36
CDM_260914-221606-533706-831121
2026-09-14T
22:16:00+0000
2.852 km
极远距离
8.840595E-7 极低风险 0.34
与全量物体交会距离演化趋势
与全量物体交会风险概率演化趋势